Tracking 28081 objects as of 26-Sep-2023
HD Live streaming from Space Station
objects crossing your sky now

NIMBUS 5

Track NIMBUS 5 now!
10-day predictions
NIMBUS 5 is classified as:


NORAD ID: 6305
Int'l Code: 1972-097A
Perigee: 1,094.1 km
Apogee: 1,107.7 km
Inclination: 99.9 °
Period: 107.1 minutes
Semi major axis: 7471 km
RCS: 3.4528 m2 (large)
Launch date: December 11, 1972
Source: United States (US)
Launch site: AIR FORCE WESTERN TEST RANGE (AFWTR)
Your satellite tracking list
Your tracking list is empty




NASA's NSSDC Master Catalog

Two Line Element Set (TLE):
1 06305U 72097A   23268.72332220 -.00000003  00000-0  71225-4 0  9996
2 06305  99.8727 173.3549 0009139  64.2192 349.3445 13.44177633490987
Source of the keplerian elements: AFSPC